Weather History for Shearwater RCS, Canada

Change the Weather History Date:

Sunday, February 2, 2014

  Actual Average Record
Temperature  
Mean Temperature 38 °F -  
Max Temperature 44 °F - - ()
Min Temperature 31 °F - - ()
Degree Days  
Heating Degree Days 28    
Moisture  
Dew Point 34 °F    
Average Humidity 86    
Maximum Humidity 95    
Minimum Humidity 72    
Precipitation  
Precipitation 0.01 in - - ()
Sea Level Pressure  
Sea Level Pressure 29.95 in    
Wind  
Wind Speed 6 mph ()    
Max Wind Speed 13 mph    
Max Gust Speed -    
T = Trace of Precipitation, MM = Missing Value Source: Averaged Metar Reports

Daily Weather History Graph

Daily Weather History Graph

Search for Another Location

Airport:

Trip Planner

Search our weather history database for the weather conditions in past years. The results will help you decide how hot, cold, wet, or windy it might be!

Date:

Astronomy

Feb. 02, 2014 Rise Set
Actual Time 7:31 AM AST 5:24 PM AST
Civil Twilight 7:00 AM AST 5:55 PM AST
Nautical Twilight 6:26 AM AST 6:30 PM AST
Astronomical Twilight 5:51 AM AST 7:04 PM AST
Moon 8:46 AM AST (2/2) 9:14 PM AST (2/2)
Length of Visible Light 10h 54m
Length of Day
9h 52m
Waxing Crescent, 11% of the Moon is Illuminated
Feb 2
Waxing Crescent
Feb 6
First Quarter
Feb 14
Full
Feb 22
Last Quarter
Mar 1
New

Hourly Weather History & Observations

Time (AST) Temp. Windchill Dew Point Humidity Pressure Visibility Wind Dir Wind Speed Gust Speed Precip Events Conditions
12:00 AM 33.4 °F 26.6 °F 29.1 °F 84% 30.27 in - South 8.1 mph - N/A   Unknown
1:00 AM 33.6 °F 26.8 °F 29.1 °F 84% 30.22 in - South 8.1 mph - N/A   Unknown
2:00 AM 34 °F - 29 °F 76% 30.17 in - SSE 8.1 mph - -  
2:00 AM 33.8 °F 27.0 °F 29.3 °F 84% 30.17 in - SSE 8.1 mph - N/A   Unknown
3:00 AM 34.2 °F 28.2 °F 29.8 °F 84% 30.14 in - SSE 6.9 mph - N/A   Unknown
4:00 AM 34.7 °F 25.9 °F 31.6 °F 89% 30.09 in - SSE 12.7 mph - N/A   Unknown
5:00 AM 35.1 °F 27.9 °F 33.3 °F 93% 30.06 in - South 9.2 mph - N/A   Unknown
6:00 AM 35.4 °F 27.8 °F 33.3 °F 92% 30.03 in - South 10.4 mph - N/A   Unknown
7:00 AM 35.2 °F 28.8 °F 33.6 °F 94% 29.97 in - SSE 8.1 mph - N/A   Unknown
8:00 AM 35 °F - 34 °F 95% 29.95 in - SSE 8.1 mph - -  
8:00 AM 35.4 °F 29.7 °F 34.2 °F 95% 29.95 in - SSE 6.9 mph - N/A   Unknown
9:00 AM 36.3 °F - 34.7 °F 94% 29.93 in - East 1.2 mph - N/A   Unknown
10:00 AM 39.0 °F - 36.1 °F 89% 29.89 in - SSE 2.3 mph - N/A   Unknown
11:00 AM 39.6 °F 37.4 °F 36.1 °F 88% 29.88 in - SSE 3.5 mph - N/A   Unknown
12:00 PM 43.0 °F 41.3 °F 38.7 °F 85% 29.83 in - WSW 3.5 mph - N/A   Unknown
1:00 PM 44.1 °F 40.1 °F 38.7 °F 81% 29.80 in - West 6.9 mph - N/A   Unknown
2:00 PM 44 °F - 38 °F 72% 29.79 in - WNW 4.6 mph - -  
2:00 PM 43.7 °F 42.1 °F 37.9 °F 80% 29.79 in - WNW 3.5 mph - N/A   Unknown
3:00 PM 43.7 °F 39.7 °F 35.8 °F 74% 29.79 in - NNW 6.9 mph - N/A   Unknown
4:00 PM 42.3 °F - 35.6 °F 77% 29.79 in - NNW 2.3 mph - N/A   Unknown
5:00 PM 40.8 °F - 35.1 °F 80% 29.83 in - NW 2.3 mph - N/A   Unknown
6:00 PM 39.6 °F - 34.7 °F 83% 29.84 in - NW 2.3 mph - N/A   Unknown
7:00 PM 39.2 °F 34.2 °F 34.7 °F 84% 29.86 in - NW 6.9 mph - N/A   Unknown
8:00 PM 38 °F - 34 °F 81% 29.88 in - NW 3.5 mph - -  
8:00 PM 38.1 °F 35.7 °F 34.2 °F 86% 29.88 in - NW 3.5 mph - N/A   Unknown
9:00 PM 37.6 °F - 34.2 °F 87% 29.88 in - WNW 2.3 mph - N/A   Unknown
10:00 PM 37.2 °F - 35.2 °F 93% 29.91 in - West 2.3 mph - N/A   Unknown
11:00 PM 36.7 °F 34.1 °F 34.9 °F 93% 29.93 in - NW 3.5 mph - N/A   Unknown